Weather Roundup
Issued by NWS Springfield, MO

Current Version | Previous Version | Text Only | Print | Product List | Glossary On
Versions: 1 2 3 4 5 6 7 8 9 10 11 12 13 14 15 16 17 18 19 20 21 22 23 24 25 26 27 28 29 30 31 32 33 34 35 36 37 38 39 40 41 42 43 44 45 46 47 48 49 50
000
NZUS99 KSGF 302307
HRRSGF

HOURLY WEATHER
NATIONAL WEATHER SERVICE SPRINGFIELD MO
600 PM CDT THU JUL 30 2015

......SGF CWA......

CITY           SKY/WX    TMP DP  RH WIND       PRES   REMARKS
SPRINGFIELD    PTSUNNY   86  58  38 NE9       30.14F
JOPLIN         PTSUNNY   86  62  44 NE6       30.13F
WEST PLAINS    MOSUNNY   85  59  41 NE6       30.16F
ROLLA          CLOUDY    86  59  39 NE3       30.14F
OSAGE BEACH    PTSUNNY   84  61  45 CALM      30.15F
BRANSON        PTSUNNY   84  63  48 E6        30.16F

......SURROUNDING SGF CWA......

CITY           SKY/WX    TMP DP  RH WIND       PRES   REMARKS
CHANUTE        CLOUDY    84  65  52 NE8       30.14F
PARSONS        CLOUDY    81  73  76 N3        30.14F
COFFEYVILLE    CLOUDY    82  71  69 N8        30.11F
EMPORIA        MOSUNNY   82  64  54 E5        30.15F
GROVE OK       CLOUDY    88  68  51 E3        30.12F HX  91
ROGERS AR      CLOUDY    82  67  60 E7        30.15F
SILOAM SPRINGS CLOUDY    81  66  61 NE3       30.13R
HARRISON AR    PTSUNNY   83  61  47 E6        30.15F
NEAR YELLVILLE SUNNY     86  61  42 CALM      30.11F

......KANSAS AND MISSOURI......

CITY           SKY/WX    TMP DP  RH WIND       PRES   REMARKS
KANSAS CTY INT PTSUNNY   84  62  47 CALM      30.15F
DOWNTOWN KC    MOSUNNY   86  56  35 SW5       30.13F
COLUMBIA       MOSUNNY   86  63  45 NW3       30.14F
SEDALIA        PTSUNNY   87  58  37 SE3       30.16F
ST JOSEPH      SUNNY     84  65  52 SW6       30.13F
ST LOUIS       PTSUNNY   88  62  41 NW7       30.11F
SPIRIT OF STL  PTSUNNY   85  67  54 W3        30.10F
KIRKSVILLE     SUNNY     86  62  44 W8        30.14F
WICHITA        MOSUNNY   84  69  60 E5        30.14F
TOPEKA         MOSUNNY   85  60  42 E5        30.14F
OLATHE         FAIR      84  57  39 CALM      30.15F

......TENNESSEE......

CITY           SKY/WX    TMP DP  RH WIND       PRES   REMARKS
MEMPHIS        MOSUNNY   88  62  41 NE14      30.05R
NASHVILLE      SUNNY     86  61  42 N13G20    30.04F

......ARKANSAS.......

CITY           SKY/WX    TMP DP  RH WIND       PRES   REMARKS
FAYETTEVILLE   CLOUDY    81  72  74 CALM      30.13F
FT SMITH       PTSUNNY   88  71  57 E7        30.06F HX  94
LITTLE ROCK    MOSUNNY   90  61  37 NE12      30.06S HX  90

......OKLAHOMA.......

CITY           SKY/WX    TMP DP  RH WIND       PRES   REMARKS
TULSA          CLOUDY    87  73  62 E10       30.08S HX  94
PONCA CITY     MOSUNNY   86  71  60 E7        30.11F HX  91
MCALESTER      PTSUNNY   86  72  62 NE8G22    30.11R HX  92
OKLAHOMA CITY  PTSUNNY   89  73  59 NE14      30.08F HX  97

......IOWA............

CITY           SKY/WX    TMP DP  RH WIND       PRES   REMARKS
DES MOINES     MOSUNNY   87  56  34 W13       30.11S
QUAD CITIES    SUNNY     87  64  46 W12       30.05F

......ILLINOIS........

CITY           SKY/WX    TMP DP  RH WIND       PRES   REMARKS
QUINCY         SUNNY     86  62  44 W10       30.11F
CHICAGO        MOSUNNY   86  53  32 NW16G26   30.00F



USA.gov is the U.S. government's official web portal to all federal, state and local government web resources and services.